Simultaneous Nadir Overpasses (SNOs) Predictions

Prediction of SNOs between METOP-A and NOAA-19 Satellite Orbit:

Table of predicted SNOs for the next 14.0 days since TLE Epoch: 9/27/2013
Index Date (METOP-A) Time (METOP-A) Lat,Lon (METOP-A) SZA (METOP-A ) Date (NOAA-19) Time (NOAA-19) Lat,Lon (NOAA-19) SZA (NOAA-19 ) Distance(km) Time Diff (sec)
1 09/27/2013 11:45:54 -73.50, 176.83 104.75 09/27/2013 11:47:02 -73.52, 176.77 104.73 3.21 68
2 10/07/2013 07:25:23 73.99, 63.08 79.51 10/07/2013 07:24:13 73.98, 61.45 79.54 49.92 70
3 10/07/2013 08:16:12 -73.62,-130.46 100.83 10/07/2013 08:15:04 -73.64,-130.45 100.81 2.16 68
4 10/07/2013 09:06:52 73.62, 36.86 79.18 10/07/2013 09:06:10 73.63, 36.82 79.19 1.59 42
5 10/07/2013 09:57:34 -73.61,-155.85 100.82 10/07/2013 09:57:07 -73.58,-155.81 100.85 3.14 27
6 10/07/2013 10:48:15 73.55, 11.36 79.14 10/07/2013 10:48:13 73.56, 11.46 79.15 3.15 2
7 10/07/2013 11:38:56 -73.59, 178.77 100.82 10/07/2013 11:39:11 -73.56, 178.71 100.84 3.18 15
8 10/07/2013 12:29:37 73.53, -14.02 79.15 10/07/2013 12:30:17 73.55, -14.02 79.16 1.62 40
9 10/07/2013 13:20:19 -73.52, 153.27 100.86 10/07/2013 13:21:14 -73.50, 153.35 100.88 3.29 55
10 10/07/2013 14:11:05 73.21, -40.08 78.87 10/07/2013 14:12:16 73.28, -38.93 78.92 37.89 71




NCC Satellite Simultaneous Nadir Overpasses (SNOs) Prediction Service
